| time (UTC) | temp C | wind direction | speed KPH | gust KPH | rain 1hr cm | rain 24hr cm | rain mn cm | humidity % | barometer mb |
| 20260506061531 | 14 | 64 | 0.0 | 4.8 | 0.00 | 0.00 | 0.00 | 88 | 1007.7 |
| 20260506044528 | 15 | 5 | 0.0 | 1.6 | 0.00 | 0.00 | 0.00 | 90 | 1007.7 |
| 20260506043018 | 15 | 42 | 0.0 | 6.4 | 0.00 | 0.00 | 0.00 | 90 | 1007.8 |
| 20260506041516 | 16 | 322 | 0.0 | 4.8 | 0.00 | 0.00 | 0.00 | 90 | 1007.6 |
| 20260506040013 | 16 | 355 | 0.0 | 3.2 | 0.00 | 0.00 | 0.00 | 90 | 1007.4 |
| 20260506034510 | 16 | 350 | 0.0 | 6.4 | 0.00 | 0.00 | 0.00 | 89 | 1007.1 |
| 20260506033006 | 17 | 360 | 0.0 | 3.2 | 0.00 | 0.00 | 0.00 | 88 | 1006.6 |
| 20260506031514 | 17 | 5 | 0.0 | 8.0 | 0.00 | 0.00 | 0.00 | 88 | 1006.6 |
| 20260506030002 | 17 | 18 | 0.0 | 4.8 | 0.00 | 0.00 | 0.00 | 87 | 1006.5 |
| 20260506024559 | 18 | 348 | 0.0 | 8.0 | 0.00 | 0.00 | 0.00 | 86 | 1006.3 |
| 20260506023054 | 18 | 343 | 0.0 | 8.0 | 0.00 | 0.00 | 0.00 | 86 | 1005.9 |
| 20260506021558 | 18 | 25 | 0.0 | 1.6 | 0.00 | 0.00 | 0.00 | 86 | 1005.2 |
| 20260506020049 | 19 | 26 | 0.0 | 1.6 | 0.00 | 0.00 | 0.00 | 84 | 1004.9 |
| 20260506014556 | 19 | 44 | 0.0 | 3.2 | 0.00 | 0.00 | 0.00 | 83 | 1004.7 |
| 20260506013044 | 20 | 48 | 0.0 | 8.0 | 0.00 | 0.00 | 0.00 | 81 | 1004.8 |
| 20260506011542 | 20 | 48 | 0.0 | 1.6 | 0.00 | 0.00 | 0.00 | 81 | 1004.3 |
| 20260506010048 | 21 | 46 | 0.0 | 6.4 | 0.00 | 0.00 | 0.00 | 81 | 1003.7 |
| 20260506004547 | 21 | 5 | 0.0 | 9.7 | 0.00 | 0.00 | 0.00 | 80 | 1003.6 |
| 20260506003040 | 21 | 13 | 0.0 | 9.7 | 0.00 | 0.00 | 0.00 | 79 | 1002.9 |
| 20260506001536 | 22 | 350 | 0.0 | 4.8 | 0.00 | 0.00 | 0.00 | 78 | 1002.8 |
| 20260506000034 | 22 | 311 | 1.6 | 14.5 | 0.00 | 0.00 | 0.00 | 77 | 1002.9 |
| 20260505234535 | 23 | 36 | 0.0 | 12.9 | 0.00 | 0.00 | 0.00 | 76 | 1002.8 |
| 20260505233033 | 25 | 36 | 0.0 | 12.9 | 0.00 | 0.00 | 0.00 | 73 | 1002.5 |
| 20260505231532 | 25 | 329 | 3.2 | 19.3 | 0.00 | 0.00 | 0.00 | 71 | 1002.5 |
| 20260505230042 | 26 | 5 | 4.8 | 22.5 | 0.00 | 0.00 | 0.00 | 70 | 1002.3 |
| 20260505224536 | 27 | 336 | 0.0 | 16.1 | 0.00 | 0.00 | 0.00 | 69 | 1002.0 |
| 20260505223030 | 27 | 328 | 1.6 | 14.5 | 0.00 | 0.00 | 0.00 | 67 | 1001.9 |
| 20260505221530 | 28 | 313 | 3.2 | 16.1 | 0.00 | 0.00 | 0.00 | 64 | 1001.5 |
| 20260505220035 | 29 | 322 | 3.2 | 12.9 | 0.00 | 0.00 | 0.00 | 62 | 1001.5 |
| 20260505214534 | 30 | 326 | 0.0 | 12.9 | 0.00 | 0.00 | 0.00 | 59 | 1001.5 |
| 20260505213027 | 30 | 323 | 3.2 | 19.3 | 0.00 | 0.00 | 0.00 | 55 | 1001.5 |
| 20260505211527 | 30 | 313 | 4.8 | 20.9 | 0.00 | 0.00 | 0.00 | 56 | 1001.5 |
| 20260505210026 | 31 | 255 | 1.6 | 14.5 | 0.00 | 0.00 | 0.00 | 64 | 1001.6 |
| 20260505204524 | 31 | 327 | 6.4 | 16.1 | 0.00 | 0.00 | 0.00 | 63 | 1001.7 |
| 20260505203027 | 31 | 246 | 1.6 | 16.1 | 0.00 | 0.00 | 0.00 | 66 | 1001.8 |
| 20260505201518 | 30 | 273 | 3.2 | 20.9 | 0.00 | 0.00 | 0.00 | 66 | 1002.0 |
| 20260505200017 | 30 | 234 | 6.4 | 22.5 | 0.00 | 0.00 | 0.00 | 67 | 1002.1 |
| 20260505194513 | 30 | 294 | 4.8 | 20.9 | 0.00 | 0.00 | 0.00 | 69 | 1002.1 |
| 20260505193012 | 29 | 256 | 6.4 | 22.5 | 0.00 | 0.00 | 0.00 | 70 | 1002.2 |
| 20260505191511 | 29 | 217 | 1.6 | 24.1 | 0.00 | 0.00 | 0.00 | 72 | 1001.9 |
| 20260505190007 | 28 | 268 | 4.8 | 16.1 | 0.00 | 0.00 | 0.00 | 74 | 1002.1 |
| 20260505184504 | 28 | 240 | 6.4 | 17.7 | 0.00 | 0.00 | 0.00 | 75 | 1002.1 |
| 20260505183003 | 27 | 223 | 3.2 | 19.3 | 0.00 | 0.00 | 0.00 | 77 | 1002.2 |
| 20260505181503 | 27 | 246 | 4.8 | 27.4 | 0.00 | 0.00 | 0.00 | 75 | 1002.2 |
| 20260505180004 | 28 | 242 | 3.2 | 22.5 | 0.00 | 0.00 | 0.00 | 76 | 1002.3 |
| 20260505174600 | 28 | 220 | 3.2 | 17.7 | 0.00 | 0.00 | 0.00 | 77 | 1002.3 |
| 20260505173059 | 27 | 196 | 1.6 | 22.5 | 0.00 | 0.00 | 0.00 | 80 | 1002.2 |
| 20260505171553 | 26 | 221 | 6.4 | 17.7 | 0.00 | 0.00 | 0.00 | 81 | 1002.3 |
| 20260505170049 | 26 | 246 | 0.0 | 24.1 | 0.00 | 0.00 | 0.00 | 84 | 1002.4 |
| 20260505164547 | 26 | 234 | 1.6 | 16.1 | 0.00 | 0.00 | 0.00 | 84 | 1002.4 |
| 20260505163045 | 25 | 242 | 4.8 | 24.1 | 0.00 | 0.00 | 0.00 | 85 | 1002.4 |
| 20260505161544 | 25 | 207 | 4.8 | 17.7 | 0.00 | 0.00 | 0.00 | 86 | 1002.1 |
| 20260505153044 | 23 | 211 | 4.8 | 17.7 | 0.00 | 0.00 | 0.00 | 89 | 1002.0 |
| 20260505151538 | 23 | 226 | 6.4 | 22.5 | 0.00 | 0.00 | 0.00 | 88 | 1001.9 |
| 20260505124625 | 21 | 219 | 1.6 | 14.5 | 0.00 | 0.00 | 0.00 | 98 | 1001.5 |
| 20260505123023 | 21 | 210 | 0.0 | 14.5 | 0.00 | 0.00 | 0.00 | 98 | 1001.3 |
| 20260505121523 | 21 | 184 | 0.0 | 16.1 | 0.00 | 0.00 | 0.00 | 98 | 1001.2 |
| 20260505120035 | 21 | 222 | 1.6 | 17.7 | 0.00 | 0.00 | 0.00 | 98 | 1001.1 |
| 20260505114521 | 21 | 223 | 0.0 | 17.7 | 0.00 | 0.00 | 0.00 | 98 | 1001.0 |
| 20260505113019 | 20 | 217 | 3.2 | 17.7 | 0.00 | 0.00 | 0.00 | 98 | 1001.0 |
| 20260505111528 | 20 | 225 | 0.0 | 12.9 | 0.00 | 0.00 | 0.00 | 98 | 1001.0 |
| 20260505101514 | 21 | 195 | 1.6 | 12.9 | 0.00 | 0.00 | 0.00 | 97 | 1000.8 |
| 20260505100013 | 21 | 190 | 1.6 | 16.1 | 0.00 | 0.00 | 0.00 | 97 | 1000.8 |
| 20260505094510 | 21 | 190 | 4.8 | 14.5 | 0.00 | 0.00 | 0.00 | 96 | 1000.9 |
| 20260505093008 | 21 | 192 | 1.6 | 22.5 | 0.00 | 0.00 | 0.00 | 95 | 1001.0 |
| 20260505091510 | 21 | 225 | 0.0 | 22.5 | 0.00 | 0.00 | 0.00 | 95 | 1001.1 |
| 20260505090005 | 21 | 198 | 6.4 | 22.5 | 0.00 | 0.00 | 0.00 | 94 | 1001.3 |
| 20260505084502 | 21 | 233 | 1.6 | 19.3 | 0.00 | 0.00 | 0.00 | 93 | 1001.3 |
| 20260505083001 | 22 | 212 | 6.4 | 19.3 | 0.00 | 0.00 | 0.00 | 92 | 1001.4 |
| 20260505081604 | 22 | 198 | 3.2 | 16.1 | 0.00 | 0.00 | 0.00 | 91 | 1001.2 |
| 20260505074555 | 22 | 162 | 1.6 | 12.9 | 0.00 | 0.00 | 0.00 | 88 | 1001.5 |
| 20260505073059 | 22 | 206 | 1.6 | 12.9 | 0.00 | 0.00 | 0.00 | 88 | 1001.8 |
| 20260505071603 | 22 | 190 | 1.6 | 17.7 | 0.00 | 0.00 | 0.00 | 86 | 1002.2 |